This demonstration page uses our WeatherBlox Daily Observations layout. Learn more.

Left ArrowRight Arrow

Hourly Observations for January 22, 2022

Temp ( °F °C ) Dew Point ( °F °C ) Humidity (%) Winds ( mph kmh ) Pressure ( in mb ) Visibility ( mi km ) Precip ( " mm )
12:53 am 00:53 Clear 33 0.6 14 -10 45 45 ESE 5 7 30.43 1030 10 16 0.00 0.00
1:53 am 01:53 Clear 31 -0.6 11 -11.7 43 43 ESE 6 9 30.44 1031 10 16 0.00 0.00
2:53 am 02:53 Clear 31 -0.6 11 -11.7 43 43 E 3 6 30.45 1031 10 16 0.00 0.00
3:53 am 03:53 Clear 30 -1.1 12 -11.1 47 47 Calm 30.46 1032 10 16 0.00 0.00
4:53 am 04:53 Clear 29 -1.7 12 -11.1 49 49 E 3 6 30.47 1032 10 16 0.00 0.00
5:53 am 05:53 Clear 29 -1.7 12 -11.1 49 49 Calm 30.49 1033 10 16 0.00 0.00
6:53 am 06:53 Clear 28 -2.2 13 -10.6 53 53 ESE 3 6 30.51 1033 10 16 0.00 0.00
7:53 am 07:53 Mostly Sunny 29 -1.7 14 -10 54 54 ESE 3 6 30.53 1034 10 16 0.00 0.00
8:53 am 08:53 Mostly Sunny 32 0 15 -9.4 50 50 ESE 7 11 30.54 1034 10 16 0.00 0.00
9:53 am 09:53 Mostly Sunny 35 1.7 15 -9.4 44 44 VRB 3 6 30.55 1035 10 16 0.00 0.00
10:53 am 10:53 Sunny 39 3.9 14 -10 36 36 VRB 3 6 30.55 1035 10 16 0.00 0.00
11:53 am 11:53 Sunny 41 5 12 -11.1 30 30 Calm 30.52 1034 10 16 0.00 0.00
12:53 pm 12:53 Sunny 46 7.8 13 -10.6 26 26 W 5 7 30.48 1032 10 16 0.00 0.00
1:53 pm 13:53 Sunny 49 9.4 14 -10 25 25 VRB 3 6 30.44 1031 10 16 0.00 0.00
2:53 pm 14:53 Mostly Sunny 50 10 14 -10 24 24 VRB 3 6 30.40 1030 10 16 0.00 0.00
3:53 pm 15:53 Mostly Sunny 51 10.6 15 -9.4 24 24 Calm 30.37 1029 10 16 0.00 0.00
4:53 pm 16:53 Mostly Sunny 49 9.4 16 -8.9 27 27 SW 3 6 30.37 1028 10 16 0.00 0.00
5:53 pm 17:53 Mostly Clear 48 8.9 16 -8.9 28 28 Calm 30.36 1028 10 16 0.00 0.00
6:53 pm 18:53 Clear 44 6.7 17 -8.3 34 34 Calm 30.37 1028 10 16 0.00 0.00
7:53 pm 19:53 Clear 40 4.4 20 -6.7 45 45 E 3 6 30.37 1029 10 16 0.00 0.00
8:53 pm 20:53 Clear 40 4.4 19 -7.2 43 43 ESE 3 6 30.36 1028 10 16 0.00 0.00
9:53 pm 21:53 Clear 38 3.3 20 -6.7 48 48 E 3 6 30.36 1028 10 16 0.00 0.00
10:53 pm 22:53 Clear 35 1.7 21 -6.1 57 57 SE 5 7 30.35 1028 10 16 0.00 0.00
11:53 pm 23:53 Clear 36 2.2 21 -6.1 55 55 Calm 30.34 1027 10 16 0.00 0.00

Powered by AerisWeather